KK2Z-13 Weather Reports


time (UTC)temp
C
wind
direction
speed
KPH
gust
KPH
rain 1hr
cm
rain 24hr
cm
rain mn
cm
humidity
%
barometer
mb
20260507001521 15 360 0.0 4.8 0.00 0.76 0.76 88 1011.5
20260507000016 15 360 0.0 1.6 0.00 0.76 0.76 88 1011.7
20260506234515 15 360 0.0 4.8 0.00 0.76 0.76 88 1011.2
20260506233013 15 360 0.0 6.4 0.00 0.76 0.76 88 1010.9
20260506231512 15 360 0.0 4.8 0.00 0.76 0.76 88 1011.5
20260506230011 15 360 0.0 6.4 0.00 0.76 0.76 88 1011.2
20260506224512 14 360 0.0 8.0 0.00 0.76 0.76 88 1011.2
20260506223012 14 360 0.0 4.8 0.00 0.76 0.76 88 1011.1
20260506221510 14 360 0.0 6.4 0.00 0.76 0.76 89 1010.6
20260506220019 14 360 0.0 3.2 0.00 0.76 0.76 90 1010.9
20260506214511 13 360 0.0 6.4 0.00 0.76 0.76 90 1011.1
20260506213008 13 360 0.0 8.0 0.00 0.76 0.76 90 1011.1
20260506211510 13 360 0.0 8.0 0.00 0.76 0.76 91 1011.1
20260506210009 13 360 0.0 8.0 0.00 0.76 0.76 91 1011.1
20260506204510 13 360 0.0 6.4 0.00 0.76 0.76 92 1011.4
20260506203008 13 360 0.0 6.4 0.00 0.76 0.76 92 1011.3
20260506201505 13 360 0.0 6.4 0.00 0.76 0.76 92 1011.5
20260506200005 13 360 0.0 6.4 0.00 0.76 0.76 92 1011.5
20260506194509 13 360 0.0 9.7 0.00 0.76 0.76 92 1011.4
20260506193004 13 360 0.0 8.0 0.00 0.76 0.76 92 1011.4
20260506191503 13 360 1.6 14.5 0.00 0.76 0.76 92 1011.5
20260506190002 13 360 0.0 6.4 0.00 0.76 0.76 93 1011.6
20260506184501 13 360 1.6 8.0 0.00 0.76 0.76 93 1011.7
20260506183101 13 360 0.0 6.4 0.00 0.76 0.76 93 1011.3
20260506181559 13 360 0.0 8.0 0.00 0.76 0.76 93 1011.3
20260506180106 13 360 0.0 9.7 0.00 0.76 0.76 93 1011.6
20260506174601 14 360 0.0 14.5 0.00 0.76 0.76 94 1011.1
20260506173059 14 360 0.0 3.2 0.00 0.76 0.76 95 1010.8
20260506171602 14 360 0.0 3.2 0.00 0.76 0.76 95 1010.4
20260506170107 14 360 0.0 8.0 0.00 0.76 0.76 95 1010.6
20260506164606 13 360 9.7 19.3 0.00 0.76 0.76 94 1009.7
20260506163114 13 360 6.4 17.7 0.05 0.76 0.76 94 1009.7
20260506161601 12 360 9.7 16.1 0.20 0.76 0.76 94 1009.9
20260506160053 12 360 3.2 9.7 0.51 0.76 0.76 93 1010.0
20260506154608 12 360 4.8 27.4 0.76 0.76 0.76 93 1010.7
20260506153055 13 360 1.6 8.0 0.71 0.71 0.71 92 1011.9
20260506151547 13 360 0.0 8.0 0.56 0.56 0.56 92 1011.5
20260506150042 13 360 1.6 14.5 0.25 0.25 0.25 91 1011.8
20260506144538 14 360 1.6 20.9 0.00 0.00 0.00 90 1010.6
20260506143046 15 360 1.6 17.7 0.00 0.00 0.00 90 1009.7
20260506141536 15 360 1.6 9.7 0.00 0.00 0.00 90 1010.0
20260506140029 16 360 0.0 9.7 0.00 0.00 0.00 89 1009.7
20260506134524 16 360 0.0 4.8 0.00 0.00 0.00 90 1008.7
20260506133021 16 360 0.0 1.6 0.00 0.00 0.00 90 1008.3
20260506131519 17 360 0.0 6.4 0.00 0.00 0.00 91 1008.3
20260506130016 17 360 0.0 8.0 0.00 0.00 0.00 92 1008.2
20260506124512 18 360 0.0 3.2 0.00 0.00 0.00 92 1007.6
20260506123008 18 360 0.0 6.4 0.00 0.00 0.00 92 1007.5
20260506121504 19 360 0.0 6.4 0.00 0.00 0.00 92 1007.3
20260506114607 22 141 0.0 3.2 0.00 0.00 0.00 94 1006.8
20260506113058 22 178 0.0 3.2 0.00 0.00 0.00 94 1006.8
20260506111558 22 178 0.0 1.6 0.00 0.00 0.00 94 1006.8
20260506104556 22 360 0.0 1.6 0.00 0.00 0.00 93 1006.9
20260506103054 22 360 0.0 1.6 0.00 0.00 0.00 93 1006.7
20260506101602 22 360 0.0 3.2 0.00 0.00 0.00 93 1006.6
20260506100051 22 360 0.0 3.2 0.00 0.00 0.00 92 1006.5
20260506094607 22 360 0.0 3.2 0.00 0.00 0.00 92 1006.2
20260506093053 22 209 0.0 8.0 0.00 0.00 0.00 91 1006.1
20260506091546 22 220 3.2 9.7 0.00 0.00 0.00 91 1006.0
20260506090045 22 176 0.0 6.4 0.00 0.00 0.00 91 1005.8
20260506084546 22 173 0.0 8.0 0.00 0.00 0.00 90 1005.8
20260506083043 22 192 0.0 9.7 0.00 0.00 0.00 90 1005.7
20260506081542 22 169 0.0 3.2 0.00 0.00 0.00 90 1005.8
20260506073045 23 172 1.6 12.9 0.00 0.00 0.00 90 1005.9
20260506071540 23 170 1.6 9.7 0.00 0.00 0.00 90 1005.9
20260506061536 23 178 6.4 25.7 0.00 0.00 0.00 91 1005.6
20260506044510 22 153 3.2 14.5 0.00 0.00 0.00 89 1005.4
20260506043009 22 182 1.6 9.7 0.00 0.00 0.00 88 1005.4
20260506041509 23 187 0.0 6.4 0.00 0.00 0.00 88 1005.5
20260506040030 23 180 0.0 8.0 0.00 0.00 0.00 88 1005.2
20260506034508 23 184 0.0 4.8 0.00 0.00 0.00 87 1005.4
20260506033007 23 174 0.0 3.2 0.00 0.00 0.00 86 1005.2
20260506031517 23 173 0.0 8.0 0.00 0.00 0.00 86 1004.9
20260506030008 23 205 1.6 11.3 0.00 0.00 0.00 85 1004.7
20260506024516 23 164 0.0 3.2 0.00 0.00 0.00 84 1004.4
20260506023005 23 155 0.0 4.8 0.00 0.00 0.00 83 1004.2
20260506021506 24 165 0.0 3.2 0.00 0.00 0.00 82 1004.1
20260506020005 24 163 0.0 3.2 0.00 0.00 0.00 81 1003.9
20260506014508 25 360 0.0 6.4 0.00 0.00 0.00 80 1003.7
20260506013004 25 360 0.0 8.0 0.00 0.00 0.00 79 1003.4
20260506011504 25 360 0.0 6.4 0.00 0.00 0.00 78 1003.3
20260506010008 26 153 0.0 8.0 0.00 0.00 0.00 76 1003.3
20260506004506 26 146 0.0 8.0 0.00 0.00 0.00 73 1003.1
20260506003004 27 174 0.0 8.0 0.00 0.00 0.00 70 1003.1